When you browse on this site, cookies collect data to enhance your experience and personalize the content and advertising you see.
Visit our Privacy Policy to learn more. By continuing to use the site, you agree to this use of cookies and data.
  • In Austria
  • List of Countries
  • For 7 days
  • Water Temperature
  • Weather Map
  • News
  • Weather Widgets
  • user-avatar
    Login

    Hourly Weather Ordino

    Today, 5 June, Friday

    Time Temperature Precipitation Wind Pressure Humidity
    00:00 +5°C° 0 mm 2 mps 626 mmHg 94%
    01:00 +4°C° 0.1 mm 2 mps 625 mmHg 94%
    02:00 +4°C° 0.1 mm 2 mps 625 mmHg 94%
    03:00 +4°C° 0.1 mm 2 mps 625 mmHg 94%
    04:00 +4°C° 0 mm 2 mps 626 mmHg 92%
    05:00 +5°C° 0 mm 2 mps 626 mmHg 90%
    06:00 +5°C° 0 mm 2 mps 627 mmHg 88%
    07:00 +7°C° 0 mm 2 mps 628 mmHg 79%
    08:00 +9°C° 0 mm 2 mps 629 mmHg 71%
    09:00 +12°C° 0 mm 2 mps 629 mmHg 63%
    10:00 +13°C° 0 mm 2 mps 630 mmHg 61%
    11:00 +13°C° 0 mm 2 mps 630 mmHg 60%
    12:00 +14°C° 0 mm 2 mps 631 mmHg 58%
    13:00 +15°C° 0 mm 2 mps 631 mmHg 58%
    14:00 +15°C° 0 mm 2 mps 631 mmHg 59%
    15:00 +16°C° 0 mm 2 mps 631 mmHg 59%
    16:00 +15°C° 0 mm 2 mps 631 mmHg 66%
    17:00 +14°C° 0 mm 1 mps 630 mmHg 73%
    18:00 +13°C° 0 mm 1 mps 630 mmHg 80%
    19:00 +12°C° 0 mm 1 mps 630 mmHg 84%
    20:00 +11°C° 0 mm 1 mps 630 mmHg 88%
    21:00 +9°C° 0 mm 0 mps 630 mmHg 92%
    22:00 +8°C° 0 mm 0 mps 630 mmHg 92%
    23:00 +8°C° 0 mm 0 mps 629 mmHg 93%

    Tomorrow, 6 June, Saturday

    Time Temperature Precipitation Wind Pressure Humidity
    00:00 +7°C° 0 mm 0 mps 629 mmHg 94%
    01:00 +7°C° 0 mm 0 mps 629 mmHg 94%
    02:00 +8°C° 0 mm 0 mps 629 mmHg 94%
    03:00 +8°C° 0 mm 0 mps 629 mmHg 94%
    04:00 +8°C° 0 mm 0 mps 629 mmHg 92%
    05:00 +9°C° 0 mm 0 mps 630 mmHg 90%
    06:00 +10°C° 0 mm 0 mps 630 mmHg 88%
    07:00 +13°C° 0 mm 1 mps 630 mmHg 80%
    08:00 +14°C° 0 mm 1 mps 631 mmHg 73%
    09:00 +16°C° 0 mm 2 mps 632 mmHg 65%
    10:00 +16°C° 0.3 mm 2 mps 631 mmHg 69%
    11:00 +15°C° 0.3 mm 2 mps 631 mmHg 73%
    12:00 +15°C° 0.3 mm 2 mps 631 mmHg 77%
    13:00 +15°C° 0.9 mm 2 mps 630 mmHg 80%
    14:00 +15°C° 0.9 mm 2 mps 630 mmHg 83%
    15:00 +14°C° 0.9 mm 2 mps 630 mmHg 86%
    16:00 +14°C° 1.1 mm 2 mps 629 mmHg 88%
    17:00 +13°C° 1.1 mm 1 mps 629 mmHg 90%
    18:00 +12°C° 1.1 mm 1 mps 628 mmHg 92%
    19:00 +12°C° 3.3 mm 1 mps 628 mmHg 93%
    20:00 +11°C° 3.3 mm 1 mps 628 mmHg 95%
    21:00 +10°C° 3.3 mm 1 mps 628 mmHg 96%
    22:00 +10°C° 1 mm 1 mps 628 mmHg 96%
    23:00 +9°C° 1 mm 1 mps 628 mmHg 96%

    Day after tomorrow, 7 June, Sunday

    Time Temperature Precipitation Wind Pressure Humidity
    00:00 +8°C° 1 mm 1 mps 627 mmHg 96%
    01:00 +8°C° 0.5 mm 1 mps 627 mmHg 96%
    02:00 +9°C° 0.5 mm 1 mps 627 mmHg 96%
    03:00 +9°C° 0.5 mm 1 mps 627 mmHg 95%
    04:00 +9°C° 0.5 mm 1 mps 627 mmHg 95%
    05:00 +9°C° 0.5 mm 1 mps 627 mmHg 95%
    06:00 +9°C° 0.5 mm 1 mps 628 mmHg 95%
    07:00 +9°C° 1 mm 1 mps 628 mmHg 93%
    08:00 +10°C° 1 mm 1 mps 628 mmHg 92%
    09:00 +10°C° 1 mm 1 mps 629 mmHg 90%
    10:00 +9°C° 1.5 mm 1 mps 629 mmHg 92%
    11:00 +9°C° 1.5 mm 1 mps 628 mmHg 94%
    12:00 +8°C° 1.5 mm 1 mps 628 mmHg 96%
    13:00 +8°C° 0.8 mm 1 mps 628 mmHg 95%
    14:00 +8°C° 0.8 mm 1 mps 628 mmHg 95%
    15:00 +8°C° 0.8 mm 1 mps 628 mmHg 94%
    16:00 +8°C° 0.5 mm 1 mps 628 mmHg 94%
    17:00 +8°C° 0.5 mm 1 mps 628 mmHg 94%
    18:00 +8°C° 0.5 mm 1 mps 628 mmHg 94%
    19:00 +7°C° 0.5 mm 1 mps 629 mmHg 94%
    20:00 +7°C° 0.5 mm 1 mps 629 mmHg 94%
    21:00 +6°C° 0.5 mm 1 mps 629 mmHg 94%
    22:00 +6°C° 0.2 mm 1 mps 629 mmHg 95%
    23:00 +6°C° 0.2 mm 1 mps 629 mmHg 95%

    8 June, Monday

    Time Temperature Precipitation Wind Pressure Humidity
    00:00 +6°C° 0.2 mm 1 mps 629 mmHg 95%
    01:00 +6°C° 0 mm 1 mps 629 mmHg 95%
    02:00 +6°C° 0 mm 1 mps 629 mmHg 95%
    03:00 +6°C° 0 mm 1 mps 629 mmHg 96%
    04:00 +6°C° 0 mm 1 mps 629 mmHg 95%
    05:00 +6°C° 0 mm 1 mps 629 mmHg 95%
    06:00 +6°C° 0 mm 1 mps 629 mmHg 94%
    07:00 +7°C° 0.2 mm 1 mps 629 mmHg 91%
    08:00 +8°C° 0.2 mm 1 mps 630 mmHg 88%
    09:00 +9°C° 0.2 mm 1 mps 630 mmHg 86%
    10:00 +8°C° 0.6 mm 2 mps 630 mmHg 85%
    11:00 +8°C° 0.6 mm 2 mps 630 mmHg 84%
    12:00 +8°C° 0.6 mm 2 mps 630 mmHg 83%
    13:00 +8°C° 0.3 mm 2 mps 630 mmHg 81%
    14:00 +9°C° 0.3 mm 2 mps 630 mmHg 78%
    15:00 +9°C° 0.3 mm 2 mps 630 mmHg 76%
    16:00 +9°C° 0.3 mm 2 mps 630 mmHg 78%
    17:00 +9°C° 0.3 mm 2 mps 630 mmHg 80%
    18:00 +8°C° 0.3 mm 2 mps 630 mmHg 82%
    19:00 +7°C° 0.1 mm 2 mps 630 mmHg 86%
    20:00 +6°C° 0.1 mm 2 mps 630 mmHg 90%
    21:00 +4°C° 0.1 mm 2 mps 630 mmHg 94%
    22:00 +4°C° 0 mm 2 mps 630 mmHg 94%
    23:00 +4°C° 0 mm 2 mps 630 mmHg 94%

    9 June, Tuesday

    Time Temperature Precipitation Wind Pressure Humidity
    00:00 +4°C° 0 mm 2 mps 630 mmHg 94%
    01:00 +4°C° 0 mm 2 mps 630 mmHg 94%
    02:00 +4°C° 0 mm 2 mps 630 mmHg 94%
    03:00 +4°C° 0 mm 2 mps 630 mmHg 94%
    04:00 +4°C° 0 mm 2 mps 630 mmHg 91%
    05:00 +5°C° 0 mm 2 mps 630 mmHg 88%
    06:00 +5°C° 0 mm 2 mps 631 mmHg 86%
    07:00 +7°C° 0 mm 2 mps 631 mmHg 75%
    08:00 +9°C° 0 mm 2 mps 632 mmHg 65%
    09:00 +12°C° 0 mm 2 mps 633 mmHg 55%
    10:00 +13°C° 0.1 mm 2 mps 633 mmHg 54%
    11:00 +13°C° 0.1 mm 2 mps 633 mmHg 54%
    12:00 +14°C° 0.1 mm 2 mps 633 mmHg 53%
    13:00 +14°C° 0.3 mm 2 mps 633 mmHg 56%
    14:00 +14°C° 0.3 mm 2 mps 633 mmHg 58%
    15:00 +14°C° 0.3 mm 2 mps 632 mmHg 60%
    16:00 +13°C° 0.3 mm 2 mps 632 mmHg 66%
    17:00 +12°C° 0.3 mm 2 mps 632 mmHg 72%
    18:00 +10°C° 0.3 mm 2 mps 632 mmHg 78%
    19:00 +9°C° 0.1 mm 2 mps 632 mmHg 83%
    20:00 +7°C° 0.1 mm 2 mps 632 mmHg 88%
    21:00 +5°C° 0.1 mm 2 mps 632 mmHg 93%
    22:00 +6°C° 0.3 mm 2 mps 632 mmHg 94%
    23:00 +6°C° 0.3 mm 2 mps 632 mmHg 94%

    10 June, Wednesday

    Time Temperature Precipitation Wind Pressure Humidity
    00:00 +6°C° 0.3 mm 2 mps 632 mmHg 94%
    01:00 +6°C° 0 mm 2 mps 632 mmHg 94%
    02:00 +5°C° 0 mm 2 mps 632 mmHg 94%
    03:00 +5°C° 0 mm 2 mps 631 mmHg 95%
    04:00 +6°C° 0 mm 2 mps 632 mmHg 93%
    05:00 +6°C° 0 mm 2 mps 632 mmHg 91%
    06:00 +7°C° 0 mm 2 mps 632 mmHg 90%
    07:00 +8°C° 0 mm 2 mps 633 mmHg 81%
    08:00 +10°C° 0 mm 2 mps 634 mmHg 73%
    09:00 +13°C° 0 mm 2 mps 634 mmHg 64%
    10:00 +13°C° 0.2 mm 2 mps 634 mmHg 64%
    11:00 +14°C° 0.2 mm 2 mps 634 mmHg 63%
    12:00 +14°C° 0.2 mm 2 mps 634 mmHg 63%
    13:00 +14°C° 0.9 mm 2 mps 634 mmHg 70%
    14:00 +13°C° 0.9 mm 2 mps 633 mmHg 76%
    15:00 +12°C° 0.9 mm 2 mps 633 mmHg 83%
    16:00 +12°C° 0.8 mm 2 mps 633 mmHg 85%
    17:00 +10°C° 0.8 mm 2 mps 633 mmHg 87%
    18:00 +9°C° 0.8 mm 2 mps 632 mmHg 90%
    19:00 +8°C° 0.2 mm 2 mps 632 mmHg 91%
    20:00 +7°C° 0.2 mm 2 mps 632 mmHg 93%
    21:00 +6°C° 0.2 mm 2 mps 632 mmHg 94%
    22:00 +6°C° 0 mm 2 mps 632 mmHg 94%
    23:00 +5°C° 0 mm 2 mps 632 mmHg 94%
    Show more